This is the latest recevied weather packets stored in our database for station/object K42C. If no packets are shown the sender has not sent any weather packets the latest 10 day(s).
| Time | Temp. | Humidity | Pressure | Rain* | Wind** | Luminosity | Snow |
|---|---|---|---|---|---|---|---|
| 1778041766 | 5° C | 73% | 974.3 hPa | 0 mm | 0 m/s | - | - |
| 1778041365 | 5° C | 72% | 974.4 hPa | 0 mm | 0 m/s | - | - |
| 1778040968 | 5° C | 72% | 974.3 hPa | 0 mm | 0 m/s | - | - |
| 1778040567 | 5° C | 72% | 974.2 hPa | 0 mm | 0 m/s | - | - |
| 1778040170 | 5.56° C | 72% | 974.2 hPa | 0 mm | 0 m/s | - | - |
| 1778039768 | 5.56° C | 71% | 974.1 hPa | 0 mm | 0 m/s | - | - |
| 1778039371 | 5.56° C | 69% | 974.1 hPa | 0 mm | 0 m/s | - | - |
| 1778038970 | 6.11° C | 67% | 974.1 hPa | 0 mm | 0 m/s | - | - |
| 1778038573 | 6.11° C | 66% | 974.3 hPa | 0 mm | 0 m/s | - | - |
| 1778037774 | 6.67° C | 64% | 974.2 hPa | 0 mm | 0 m/s | - | - |
| 1778037373 | 6.67° C | 63% | 974.1 hPa | 0 mm | 0 m/s | - | - |
| 1778036976 | 7.22° C | 62% | 974.1 hPa | 0 mm | 0 m/s | - | - |
| 1778036575 | 7.22° C | 62% | 974 hPa | 0 mm | 0 m/s | - | - |
| 1778036177 | 7.78° C | 60% | 973.9 hPa | 0 mm | 0 m/s | - | - |
| 1778035776 | 7.78° C | 59% | 973.9 hPa | 0 mm | 0 m/s | - | - |
| 1778035379 | 7.78° C | 59% | 973.8 hPa | 0 mm | 0 m/s | - | - |
| 1778034978 | 8.33° C | 58% | 973.6 hPa | 0 mm | 0 m/s | - | - |
| 1778034179 | 8.33° C | 57% | 973.3 hPa | 0 mm | 0 m/s | - | - |
| 1778033782 | 8.33° C | 57% | 973.4 hPa | 0 mm | 0 m/s | - | - |
| 1778033381 | 8.33° C | 57% | 973.3 hPa | 0 mm | 0 m/s | - | - |
| 1778032984 | 8.33° C | 56% | 973.2 hPa | 0 mm | 0 m/s | - | - |
| 1778032185 | 8.89° C | 55% | 973.1 hPa | 0 mm | 0 m/s | - | - |
| 1778031784 | 8.89° C | 54% | 973.1 hPa | 0 mm | 0 m/s | - | - |
| 1778030986 | 8.89° C | 53% | 972.8 hPa | 0 mm | 0 m/s | - | - |
| 1778030588 | 9.44° C | 52% | 972.6 hPa | 0 mm | 0 m/s | - | - |
* Rain latest hour (hover to see other rain measurements)
** Current wind speed in m/s (hover to see current wind gust speed)